FW6636 Weather Reports


Display with metric or nautical units.
time (UTC)temp
F
wind
direction
speed
MPH
gust
MPH
rain 1hr
in
rain 24hr
in
rain mn
in
humidity
%
barometer
mb
20260506004049 72 188 8.0 14.0 0.00 0.10 0.10 41 1008.9
20260506003549 72 155 7.0 12.0 0.00 0.10 0.10 42 1008.8
20260506003058 72 165 7.0 14.0 0.00 0.10 0.10 43 1008.8
20260506002548 72 169 8.0 16.0 0.00 0.10 0.10 43 1008.8
20260506002051 73 173 8.0 16.0 0.00 0.10 0.10 40 1008.8
20260506001608 73 181 6.0 11.0 0.00 0.10 0.10 40 1008.8
20260506001052 72 193 5.0 12.0 0.00 0.10 0.10 41 1008.7
20260506000550 73 179 6.0 12.0 0.00 0.10 0.10 40 1008.6
20260506000125 73 214 8.0 12.0 0.00 0.10 0.10 39 1008.6
20260505235548 74 187 6.0 15.0 0.00 0.10 0.10 39 1008.5
20260505235051 74 201 8.0 18.0 0.00 0.10 0.10 39 1008.4
20260505234617 74 178 10.0 18.0 0.00 0.10 0.10 39 1008.5
20260505234052 74 177 6.0 14.0 0.00 0.10 0.10 39 1008.5
20260505233549 75 169 8.0 20.0 0.00 0.10 0.10 38 1008.3
20260505233108 75 219 9.0 20.0 0.00 0.10 0.10 39 1008.5
20260505232550 75 222 9.0 16.0 0.00 0.10 0.10 38 1008.2
20260505232051 75 202 9.0 20.0 0.00 0.10 0.10 39 1008.3
20260505231607 75 183 8.0 20.0 0.00 0.10 0.10 38 1008.2
20260505231049 75 211 8.0 23.0 0.00 0.10 0.10 37 1008.3
20260505230549 76 175 11.0 23.0 0.00 0.10 0.10 38 1008.3
20260505230100 76 192 10.0 18.0 0.00 0.10 0.10 38 1008.1
20260505225549 76 136 10.0 20.0 0.00 0.10 0.10 37 1008.2
20260505225048 76 194 11.0 20.0 0.00 0.10 0.10 37 1008.2
20260505224614 76 172 11.0 19.0 0.00 0.10 0.10 37 1008.2
20260505224054 76 188 9.0 18.0 0.00 0.10 0.10 37 1008.1
20260505223551 77 179 7.0 18.0 0.00 0.10 0.10 36 1007.9
20260505223104 77 204 9.0 15.0 0.00 0.10 0.10 35 1007.9
20260505222548 77 188 7.0 20.0 0.00 0.10 0.10 33 1007.9
20260505222052 77 219 11.0 20.0 0.00 0.10 0.10 33 1007.8
20260505221603 77 188 10.0 16.0 0.00 0.10 0.10 33 1007.8
20260505221049 77 233 7.0 20.0 0.00 0.10 0.10 33 1007.9
20260505220548 77 192 7.0 20.0 0.00 0.10 0.10 34 1007.8
20260505220106 77 198 8.0 18.0 0.00 0.10 0.10 33 1007.9
20260505215548 77 189 8.0 15.0 0.00 0.10 0.10 32 1007.7
20260505215049 77 186 6.0 12.0 0.00 0.10 0.10 34 1007.8
20260505214622 77 209 6.0 18.0 0.00 0.10 0.10 36 1007.8
20260505214049 77 229 8.0 18.0 0.00 0.10 0.10 39 1007.8
20260505213550 77 181 11.0 16.0 0.00 0.10 0.10 37 1007.8
20260505213052 77 217 8.0 18.0 0.00 0.10 0.10 37 1007.8
20260505212548 77 199 11.0 18.0 0.00 0.10 0.10 36 1007.8
20260505212049 76 169 8.0 24.0 0.00 0.10 0.10 40 1007.7
20260505211626 76 204 9.0 24.0 0.00 0.10 0.10 38 1007.6
20260505211054 77 177 15.0 24.0 0.00 0.10 0.10 38 1007.7
20260505210549 77 179 17.0 24.0 0.00 0.10 0.10 40 1007.5
20260505210053 77 240 12.0 28.0 0.00 0.10 0.10 40 1007.8
20260505205549 77 202 13.0 28.0 0.00 0.10 0.10 37 1007.5
20260505205050 78 175 10.0 25.0 0.00 0.10 0.10 37 1007.8
20260505204603 78 188 10.0 26.0 0.00 0.10 0.10 37 1007.6
20260505204049 78 187 14.0 34.0 0.00 0.10 0.10 37 1007.6
20260505203549 79 175 14.0 34.0 0.00 0.10 0.10 38 1007.6
20260505203055 79 183 11.0 25.0 0.00 0.10 0.10 40 1007.6
20260505202548 79 194 11.0 25.0 0.00 0.10 0.10 39 1007.6
20260505202049 80 216 13.0 31.0 0.00 0.10 0.10 35 1007.4
20260505201555 79 200 14.0 31.0 0.00 0.10 0.10 38 1007.4
20260505201049 80 202 13.0 24.0 0.00 0.10 0.10 36 1007.5
20260505200548 80 211 13.0 35.0 0.00 0.10 0.10 40 1007.5
20260505200052 80 182 14.0 35.0 0.00 0.10 0.10 32 1007.6
20260505195548 79 183 17.0 32.0 0.00 0.10 0.10 34 1007.5
20260505195050 80 186 14.0 32.0 0.00 0.10 0.10 32 1007.7
20260505194557 80 154 11.0 28.0 0.00 0.10 0.10 34 1007.5
20260505194053 79 200 15.0 29.0 0.00 0.10 0.10 30 1007.8
20260505193552 79 188 12.0 29.0 0.00 0.10 0.10 33 1007.9
20260505193053 78 217 13.0 29.0 0.00 0.10 0.10 32 1007.9
20260505192548 78 242 10.0 25.0 0.00 0.10 0.10 33 1008.0
20260505192049 79 205 8.0 28.0 0.00 0.10 0.10 33 1008.0
20260505191600 80 267 11.0 28.0 0.00 0.10 0.10 31 1008.0
20260505191050 79 244 13.0 25.0 0.00 0.10 0.10 31 1008.2
20260505190552 80 237 10.0 20.0 0.00 0.10 0.10 34 1008.2
20260505190058 80 206 10.0 22.0 0.00 0.10 0.10 35 1008.3
20260505185549 80 222 9.0 23.0 0.00 0.10 0.10 31 1008.2
20260505185049 79 195 11.0 23.0 0.00 0.10 0.10 33 1008.2
20260505184554 79 177 13.0 27.0 0.00 0.10 0.10 34 1008.6
20260505184130 80 241 11.0 27.0 0.00 0.10 0.10 32 1008.6
20260505183553 79 248 13.0 24.0 0.00 0.10 0.10 34 1008.6
20260505183058 79 225 14.0 25.0 0.00 0.10 0.10 35 1008.6
20260505182553 80 178 10.0 25.0 0.00 0.10 0.10 30 1008.6
20260505182053 79 198 10.0 21.0 0.00 0.10 0.10 37 1008.8
20260505181638 79 242 12.0 22.0 0.00 0.10 0.10 38 1008.7
20260505181055 79 200 11.0 24.0 0.00 0.10 0.10 32 1008.8
20260505180553 79 208 11.0 33.0 0.00 0.10 0.10 35 1008.8
20260505180103 79 251 13.0 33.0 0.00 0.10 0.10 35 1008.9
20260505175553 79 234 13.0 36.0 0.00 0.10 0.10 38 1008.8
20260505175052 78 188 14.0 36.0 0.00 0.10 0.10 38 1008.9
20260505174556 78 205 15.0 31.0 0.00 0.10 0.10 36 1009.1
20260505174053 78 169 16.0 32.0 0.00 0.10 0.10 39 1009.0
20260505173552 78 190 16.0 32.0 0.00 0.10 0.10 38 1009.2
20260505173055 78 206 18.0 29.0 0.00 0.10 0.10 37 1009.2
20260505172552 78 211 9.0 30.0 0.00 0.10 0.10 41 1009.2
20260505172053 77 253 13.0 30.0 0.00 0.10 0.10 39 1009.0
20260505171601 77 208 12.0 29.0 0.00 0.10 0.10 39 1009.3
20260505171053 76 278 7.0 15.0 0.00 0.10 0.10 45 1009.4
20260505170553 76 240 5.0 15.0 0.00 0.10 0.10 47 1009.3
20260505170055 76 268 6.0 15.0 0.00 0.10 0.10 43 1009.4
20260505165552 76 233 7.0 15.0 0.00 0.10 0.10 43 1009.3
20260505165052 77 262 9.0 15.0 0.00 0.10 0.10 43 1009.5
20260505164555 77 201 8.0 17.0 0.00 0.10 0.10 43 1009.6
20260505164052 77 252 8.0 17.0 0.00 0.10 0.10 43 1009.6
20260505163555 77 289 7.0 16.0 0.00 0.10 0.10 42 1009.7
20260505163053 77 244 5.0 19.0 0.00 0.10 0.10 49 1009.9
20260505162553 76 208 10.0 19.0 0.00 0.10 0.10 45 1009.9
20260505162052 76 201 9.0 20.0 0.00 0.10 0.10 46 1009.8
20260505161555 76 222 9.0 20.0 0.00 0.10 0.10 44 1010.1
20260505161053 76 217 5.0 17.0 0.00 0.10 0.10 49 1010.1
20260505160553 76 234 6.0 17.0 0.00 0.10 0.10 46 1010.1
20260505153058 75 190 8.0 15.0 0.00 0.10 0.10 47 1010.4
20260505152552 74 247 9.0 15.0 0.00 0.10 0.10 50 1010.4
20260505152053 74 196 7.0 15.0 0.00 0.10 0.10 49 1010.4
20260505151559 74 220 7.0 14.0 0.00 0.10 0.10 49 1010.4
20260505151057 73 191 5.0 13.0 0.00 0.10 0.10 53 1010.5
20260505150552 73 198 6.0 13.0 0.00 0.10 0.10 51 1010.6
20260505140552 68 200 4.0 11.0 0.00 0.10 0.10 63 1011.0
20260505124557 62 0 0.0 0.0 0.00 0.10 0.10 77 1011.3
20260505124054 61 0 0.0 0.0 0.00 0.10 0.10 77 1011.1
20260505123552 61 0 0.0 0.0 0.00 0.10 0.10 78 1011.1
20260505123101 61 0 0.0 0.0 0.00 0.10 0.10 79 1011.0
20260505122552 60 0 0.0 0.0 0.00 0.10 0.10 77 1011.0
20260505122053 59 0 0.0 0.0 0.00 0.10 0.10 79 1010.9
20260505121555 59 0 0.0 0.0 0.00 0.10 0.10 83 1011.0
20260505121052 59 0 0.0 0.0 0.00 0.10 0.10 87 1011.1
20260505120554 58 0 0.0 0.0 0.00 0.10 0.10 88 1011.2
20260505120111 58 0 0.0 0.0 0.00 0.10 0.10 89 1011.0
20260505115551 58 0 0.0 0.0 0.00 0.10 0.10 91 1011.0
20260505115054 57 0 0.0 0.0 0.00 0.10 0.10 92 1011.0
20260505114557 55 0 0.0 0.0 0.00 0.10 0.10 91 1011.0
20260505114054 55 0 0.0 0.0 0.00 0.10 0.10 91 1011.1
20260505113555 54 0 0.0 0.0 0.00 0.10 0.10 92 1011.0
20260505113055 54 0 0.0 0.0 0.00 0.10 0.10 92 1010.9
20260505112552 53 0 0.0 0.0 0.00 0.10 0.10 91 1011.0
20260505112052 53 0 0.0 0.0 0.00 0.10 0.10 92 1010.8
20260505111557 52 0 0.0 0.0 0.00 0.10 0.10 92 1010.8
20260505111052 52 0 0.0 0.0 0.00 0.10 0.10 92 1010.6
20260505110555 52 0 0.0 0.0 0.00 0.10 0.10 92 1010.6
20260505110112 51 0 0.0 0.0 0.00 0.10 0.10 92 1010.6
20260505102104 49 0 0.0 2.0 0.00 0.10 0.10 91 1010.4
20260505101639 49 0 0.0 3.0 0.00 0.10 0.10 91 1010.6
20260505101122 49 0 0.0 4.0 0.00 0.10 0.10 90 1010.4
20260505100553 49 303 2.0 4.0 0.00 0.10 0.10 91 1010.4
20260505100055 49 0 0.0 2.0 0.00 0.10 0.10 90 1010.3
20260505095553 50 0 0.0 2.0 0.00 0.10 0.10 90 1010.3
20260505095053 50 0 0.0 1.0 0.00 0.10 0.10 91 1010.3
20260505094557 50 0 0.0 2.0 0.01 0.10 0.10 90 1010.1
20260505094054 50 0 0.0 3.0 0.02 0.10 0.10 90 1010.2
20260505093552 50 0 0.0 3.0 0.04 0.10 0.10 90 1010.0
20260505093056 50 0 1.0 4.0 0.05 0.10 0.10 89 1010.0
20260505092553 50 0 2.0 4.0 0.05 0.10 0.10 89 1010.0
20260505092053 50 0 0.0 0.0 0.09 0.10 0.10 89 1009.9
20260505091556 51 0 0.0 0.0 0.10 0.10 0.10 89 1010.0
20260505091058 51 0 0.0 3.0 0.10 0.10 0.10 89 1009.9
20260505090553 51 0 0.0 3.0 0.10 0.10 0.10 88 1010.0
20260505090050 51 0 1.0 10.0 0.10 0.10 0.10 88 1010.1
20260505085553 51 321 0.0 10.0 0.10 0.10 0.10 88 1009.9
20260505085053 51 320 1.0 8.0 0.10 0.10 0.10 87 1010.0
20260505084601 51 100 1.0 6.0 0.09 0.09 0.09 86 1009.9
20260505084056 51 95 0.0 4.0 0.08 0.08 0.08 85 1010.2
20260505083552 52 206 2.0 4.0 0.06 0.06 0.06 86 1010.8
20260505083108 52 0 0.0 5.0 0.05 0.05 0.05 84 1010.9
20260505082556 52 306 0.0 9.0 0.05 0.05 0.05 79 1010.9
20260505082049 53 307 2.0 9.0 0.01 0.01 0.01 76 1010.9
20260505081554 54 304 3.0 8.0 0.00 0.00 0.00 75 1010.8
20260505081053 55 306 2.0 5.0 0.00 0.00 0.00 73 1010.6
20260505080553 55 269 2.0 3.0 0.00 0.00 0.00 70 1010.4
20260505080105 55 0 0.0 1.0 0.00 0.00 0.00 68 1010.3
20260505075551 55 0 0.0 2.0 0.00 0.00 0.00 68 1010.1
20260505075055 55 0 0.0 2.0 0.00 0.00 0.00 68 1010.0
20260505074555 55 223 0.0 2.0 0.00 0.00 0.00 67 1010.0
20260505074053 55 0 0.0 1.0 0.00 0.00 0.00 66 1009.9
20260505073552 56 0 0.0 1.0 0.00 0.00 0.00 65 1009.9
20260505073101 56 0 0.0 0.0 0.00 0.00 0.00 66 1009.9
20260505072552 56 0 0.0 0.0 0.00 0.00 0.00 66 1009.9
20260505072052 56 0 0.0 0.0 0.00 0.00 0.00 66 1009.9
20260505071554 56 0 0.0 0.0 0.00 0.00 0.00 66 1009.9
20260505071053 56 0 0.0 0.0 0.00 0.00 0.00 67 1009.9
20260505070553 56 0 0.0 0.0 0.00 0.00 0.00 65 1010.0
20260505070106 56 0 0.0 0.0 0.00 0.00 0.00 64 1010.1
20260505065553 56 0 0.0 0.0 0.00 0.00 0.00 65 1010.0
20260505065052 56 0 0.0 0.0 0.00 0.00 0.00 65 1010.1
20260505064648 56 0 0.0 0.0 0.00 0.00 0.00 65 1010.1
20260505064049 56 0 0.0 0.0 0.00 0.00 0.00 64 1010.1
20260505063549 56 0 0.0 0.0 0.00 0.00 0.00 64 1010.0
20260505063053 56 0 0.0 0.0 0.00 0.00 0.00 64 1010.0
20260505062552 56 0 0.0 0.0 0.00 0.00 0.00 64 1010.1
20260505062053 56 0 0.0 2.0 0.00 0.00 0.00 65 1010.1
20260505061557 57 0 0.0 2.0 0.00 0.00 0.00 65 1010.1
20260505061055 58 224 1.0 2.0 0.00 0.00 0.00 61 1010.3
20260505060553 59 223 1.0 3.0 0.00 0.00 0.00 58 1010.2
20260505060101 60 0 0.0 3.0 0.00 0.00 0.00 61 1010.3
20260505055553 60 224 0.0 3.0 0.00 0.00 0.00 56 1010.3
20260505055053 60 0 0.0 5.0 0.00 0.00 0.00 56 1010.3
20260505054601 60 217 1.0 7.0 0.00 0.00 0.00 56 1010.3
20260505054052 60 206 3.0 8.0 0.00 0.00 0.00 56 1010.2
20260505053552 60 198 3.0 8.0 0.00 0.00 0.00 55 1010.2
20260505053058 60 233 4.0 8.0 0.00 0.00 0.00 55 1010.2
20260505052552 61 217 5.0 10.0 0.00 0.00 0.00 55 1010.2
20260505052052 61 200 4.0 10.0 0.00 0.00 0.00 53 1010.2
20260505051558 61 229 5.0 10.0 0.00 0.00 0.00 53 1010.2
20260505051053 61 206 5.0 11.0 0.00 0.00 0.00 55 1010.1
20260505050553 61 210 6.0 11.0 0.00 0.00 0.00 53 1010.1
20260505041601 59 0 0.0 5.0 0.00 0.00 0.00 53 1010.0
20260505041053 59 245 2.0 5.0 0.00 0.00 0.00 53 1010.0
20260505040553 58 249 1.0 3.0 0.00 0.00 0.00 53 1010.0
20260505035549 57 251 1.0 2.0 0.00 0.00 0.00 56 1010.0
20260505035052 57 251 0.0 2.0 0.00 0.00 0.00 55 1009.8
20260505034609 57 0 0.0 2.0 0.00 0.00 0.00 56 1010.0
20260505034052 58 250 0.0 2.0 0.00 0.00 0.00 56 1010.0
20260505033549 58 0 0.0 4.0 0.00 0.00 0.00 55 1009.9
20260505033056 58 0 1.0 4.0 0.00 0.00 0.00 55 1010.0
20260505032552 58 255 1.0 2.0 0.00 0.00 0.00 55 1009.9
20260505032052 59 300 0.0 2.0 0.00 0.00 0.00 55 1009.9
20260505031552 59 0 0.0 4.0 0.00 0.00 0.00 52 1010.0
20260505031051 59 0 1.0 6.0 0.00 0.00 0.00 52 1010.0
20260505030556 59 215 2.0 6.0 0.00 0.00 0.00 53 1010.2
20260505030104 59 223 2.0 6.0 0.00 0.00 0.00 53 1010.1
20260505025550 59 0 1.0 6.0 0.00 0.00 0.00 55 1010.1
20260505025053 59 0 2.0 9.0 0.00 0.00 0.00 53 1010.1
20260505024607 59 206 2.0 9.0 0.00 0.00 0.00 54 1010.1
20260505024052 59 171 4.0 8.0 0.00 0.00 0.00 54 1010.1
20260505023552 59 177 3.0 8.0 0.00 0.00 0.00 53 1010.2
20260505023054 60 190 3.0 9.0 0.00 0.00 0.00 53 1010.4
20260505022552 61 175 3.0 9.0 0.00 0.00 0.00 50 1010.3
20260505022052 61 186 3.0 9.0 0.00 0.00 0.00 50 1010.3
20260505021554 62 196 2.0 6.0 0.00 0.00 0.00 50 1010.6
20260505021052 62 223 2.0 8.0 0.00 0.00 0.00 48 1010.4
20260505020552 62 223 1.0 9.0 0.00 0.00 0.00 48 1010.4
20260505020106 62 226 4.0 9.0 0.00 0.00 0.00 48 1010.6
20260505015553 62 0 2.0 5.0 0.00 0.00 0.00 48 1010.4
20260505015057 62 207 2.0 6.0 0.00 0.00 0.00 48 1010.4
20260505014553 62 243 2.0 7.0 0.00 0.00 0.00 48 1010.3
20260505014052 62 190 4.0 7.0 0.00 0.00 0.00 48 1010.4
20260505013548 61 202 2.0 6.0 0.00 0.00 0.00 49 1010.2
20260505013055 62 209 2.0 7.0 0.00 0.00 0.00 48 1010.4
20260505012551 62 198 1.0 7.0 0.00 0.00 0.00 47 1010.3
20260505012052 62 232 2.0 6.0 0.00 0.00 0.00 47 1010.3
20260505011600 62 196 3.0 6.0 0.00 0.00 0.00 47 1010.1
20260505011053 63 182 3.0 10.0 0.00 0.00 0.00 48 1010.0
20260505010550 63 193 4.0 10.0 0.00 0.00 0.00 47 1009.9
20260505010110 63 188 2.0 12.0 0.00 0.00 0.00 46 1009.8
20260505005550 63 101 3.0 12.0 0.00 0.00 0.00 46 1009.8
20260505005052 62 136 2.0 9.0 0.00 0.00 0.00 47 1009.8
20260505004622 62 125 1.0 4.0 0.00 0.00 0.00 47 1009.7